Location: Unspecified
(0.0000°N, 0.0000°E)
Time: 21:08:11
(UTC+00:00)

Tiros 1 despin weight - Pass Details

Date: 31 May 2022
Orbit: 591 x 639 km, 48.2° (Epoch: 25 June)

Event Time Altitude Azimuth Distance (km) Brightness Sun altitude
Rises 13:34:26 0° 236° (WSW) 2,932 ? 57.8°
Reaches altitude 10° 13:36:58 10° 247° (WSW) 2,019 ? 57.3°
Maximum altitude 13:41:05 31° 309° (NW) 1,103 ? 56.6°
Drops below altitude 10° 13:45:11 10° 12° (NNE) 1,996 ? 55.8°
Sets 13:47:41 0° 22° (NNE) 2,893 ? 55.4°
